Temp
17 17 17 17 17 17 17 17 17 17 17 18 18 19 19 20 21 21 22 21 21 21 22 22 22 23 23 20 19 18 21 19 17 17 16 12 12 9 8 9 8 7 8 7 5
17 17 17 17 17 17 17 17 17 17 18 18 18 19 19 20 21 21 20 21 21 21 22 22 22 23 20 17 16 20 21 18 16 16 15 12 13 10 10 9 8 7 6 5 6
17 17 18 17 18 17 17 17 17 18 18 18 19 19 20 21 21 20 21 21 21 22 22 22 22 22 18 16 14 14 18 14 12 12 13 12 11 10 12 11 11 9 6 5 4
17 17 17 18 18 17 17 17 18 18 19 19 19 20 21 21 21 19 20 21 21 21 21 22 22 19 17 17 13 15 12 13 11 10 11 12 11 11 11 12 10 9 6 5 5
17 17 17 18 17 18 18 18 18 19 19 19 19 20 21 20 17 19 20 20 21 21 22 21 20 18 18 15 15 15 12 11 11 10 11 10 11 12 10 8 8 7 6 5 5
17 17 17 17 18 18 18 18 18 19 19 19 19 20 21 19 18 19 20 20 21 21 21 21 19 17 14 13 15 12 12 11 11 11 10 12 11 9 11 7 8 6 6 6 5
17 17 17 17 18 18 18 18 18 18 18 19 19 20 20 17 18 18 19 20 20 20 21 20 19 17 15 13 12 13 15 13 12 12 12 11 12 12 10 7 7 7 6 6 5
17 17 17 18 18 18 18 18 18 19 19 19 19 20 18 18 18 18 18 19 19 19 20 19 18 18 14 13 14 16 16 18 14 12 10 11 19 14 9 8 8 7 7 6 4
17 17 17 17 18 18 18 19 19 19 19 19 19 20 18 18 18 19 19 19 19 19 19 19 19 15 13 18 18 17 20 18 17 12 12 12 17 12 8 8 9 8 8 6 5
17 17 17 17 18 18 18 19 19 19 19 19 19 20 18 18 18 19 19 19 19 19 18 18 18 20 19 20 21 20 19 18 18 15 12 14 14 14 9 8 9 9 8 7 6
17 17 17 18 18 18 18 19 19 19 19 17 17 17 18 18 18 18 19 19 19 19 20 17 21 20 18 16 17 17 18 18 18 13 13 15 16 16 13 9 9 10 9 8 7
17 17 17 18 18 18 18 19 19 18 18 17 17 17 18 18 18 18 19 19 19 20 18 20 19 16 15 15 16 16 17 19 16 12 13 16 15 17 15 11 10 10 10 8 7
17 17 17 18 18 19 18 19 18 18 19 17 17 17 17 18 16 17 18 17 18 19 19 20 17 14 15 16 17 17 17 17 16 15 13 13 18 15 11 9 8 9 9 9 7
17 17 17 18 18 18 18 18 18 18 21 19 18 17 17 17 17 17 17 17 17 18 17 18 15 15 16 16 15 17 14 14 14 15 18 14 19 19 14 13 10 10 8 8 7
17 17 17 18 18 18 18 18 18 18 20 17 18 17 17 17 16 17 16 17 18 17 17 17 16 16 17 15 14 16 13 13 13 15 15 15 16 21 13 17 15 12 10 8 7
16 17 17 17 18 18 18 18 18 20 20 18 17 17 18 16 15 16 16 16 15 17 16 15 13 15 15 13 13 12 14 14 13 15 18 15 16 20 19 18 15 11 9 8 6
16 17 17 17 17 18 18 18 20 20 17 18 18 17 17 17 17 16 16 17 18 19 19 16 15 13 12 15 14 15 17 20 20 20 19 13 14 19 18 15 13 11 9 7 4
16 16 17 17 17 18 18 19 19 17 18 16 16 16 18 16 16 15 16 17 13 15 17 19 19 15 13 15 15 15 16 19 17 19 19 12 16 21 14 10 8 7 6 5 3
16 16 17 17 17 18 18 19 20 18 17 17 16 17 18 16 16 16 16 17 14 14 18 18 17 12 12 12 13 15 17 13 15 13 15 18 18 18 13 12 9 8 5 5 3
16 16 16 17 17 17 19 17 17 14 15 15 18 17 18 17 17 17 16 14 13 11 11 15 18 13 12 12 12 14 13 16 16 17 17 19 17 19 19 18 14 10 7 5 3
16 16 16 17 17 17 18 17 15 14 14 16 17 17 17 17 17 17 17 13 12 12 11 13 15 14 12 14 16 13 14 13 14 15 17 17 20 20 19 17 15 13 10 6 3
15 16 16 16 16 12 17 15 13 13 13 14 14 16 16 16 16 16 17 15 11 11 13 13 15 18 17 11 11 13 15 16 16 15 14 13 16 16 16 13 12 11 9 6 3
15 15 15 15 17 16 13 13 12 13 14 14 15 14 14 15 16 15 14 9 9 11 12 12 15 18 16 12 11 12 12 13 12 13 15 16 20 14 12 11 10 9 8 5 2
15 16 14 14 14 15 14 15 14 12 13 13 13 13 14 14 13 14 13 9 8 9 9 10 13 16 20 19 16 13 11 11 14 14 16 15 19 20 19 16 14 10 7 4 2
14 14 14 15 14 13 13 14 14 14 11 12 13 14 15 15 14 14 11 9 8 8 8 10 13 12 14 13 12 14 13 11 12 15 15 20 16 18 18 18 14 9 6 3 2
13 13 12 12 11 12 12 14 14 13 13 13 13 14 14 16 17 16 13 11 13 8 10 8 13 10 13 11 10 11 12 12 11 13 13 13 13 16 16 10 9 8 5 3 2
13 13 13 11 11 13 14 14 14 13 13 12 12 13 12 13 12 11 10 10 11 11 10 10 12 12 16 11 12 15 15 12 11 11 12 13 17 13 14 12 11 10 6 4 3
Height
1557 1560 1561 1561 1565 1564 1566 1569 1571 1570 1570 1571 1574 1572 1571 1569 1569 1568 1566 1569 1568 1567 1567 1566 1566 1564 1563 1562 1564 1566 1569 1580 1588 1590 1593 1602 1604 1608 1608 1610 1612 1612 1613 1613 1613
1560 1563 1563 1564 1565 1566 1570 1571 1572 1572 1571 1573 1576 1573 1572 1571 1570 1569 1572 1571 1569 1569 1569 1568 1567 1566 1564 1567 1569 1569 1570 1584 1591 1591 1594 1601 1603 1607 1609 1610 1610 1610 1609 1611 1612
1563 1564 1564 1568 1565 1568 1572 1573 1573 1573 1574 1575 1577 1576 1572 1571 1572 1574 1573 1572 1571 1570 1569 1568 1567 1566 1568 1572 1576 1577 1580 1591 1594 1595 1596 1601 1604 1606 1605 1607 1605 1605 1607 1609 1612
1566 1565 1568 1567 1567 1571 1574 1574 1576 1574 1574 1575 1577 1577 1574 1573 1576 1575 1574 1573 1571 1570 1569 1568 1567 1568 1573 1576 1580 1584 1593 1593 1596 1597 1599 1601 1603 1603 1603 1602 1602 1604 1606 1608 1611
1567 1569 1568 1567 1571 1573 1576 1575 1576 1575 1575 1576 1577 1576 1575 1575 1579 1576 1574 1573 1571 1570 1569 1567 1567 1570 1574 1580 1583 1586 1595 1597 1598 1600 1600 1601 1602 1601 1601 1600 1601 1603 1606 1608 1611
1567 1571 1570 1570 1572 1576 1577 1576 1576 1576 1577 1577 1577 1576 1576 1577 1579 1577 1575 1574 1571 1570 1568 1567 1568 1570 1576 1583 1584 1592 1595 1598 1600 1601 1601 1601 1602 1601 1597 1598 1601 1602 1605 1608 1609
1568 1572 1573 1571 1576 1577 1578 1577 1576 1578 1580 1578 1578 1577 1576 1580 1579 1579 1577 1574 1572 1571 1569 1569 1571 1573 1579 1587 1592 1593 1593 1597 1598 1600 1600 1601 1598 1592 1593 1596 1600 1603 1605 1606 1606
1570 1574 1575 1573 1579 1579 1579 1577 1577 1579 1582 1580 1579 1578 1580 1581 1580 1579 1578 1577 1575 1574 1572 1573 1573 1573 1582 1589 1592 1590 1591 1585 1594 1597 1599 1600 1575 1586 1592 1595 1599 1601 1603 1603 1604
1573 1575 1575 1577 1581 1580 1578 1578 1578 1581 1582 1581 1580 1579 1582 1582 1582 1581 1579 1578 1577 1576 1575 1575 1575 1581 1588 1584 1585 1587 1577 1584 1587 1594 1596 1597 1577 1587 1591 1594 1596 1597 1599 1600 1602
1574 1575 1577 1581 1581 1580 1579 1580 1580 1582 1583 1582 1580 1582 1583 1583 1581 1580 1579 1579 1578 1577 1577 1577 1579 1580 1583 1581 1579 1581 1581 1583 1582 1591 1595 1590 1582 1583 1589 1591 1591 1593 1595 1596 1597
1575 1578 1581 1582 1581 1581 1581 1581 1585 1587 1583 1583 1583 1582 1582 1583 1582 1581 1580 1579 1578 1578 1577 1579 1576 1581 1586 1589 1588 1586 1584 1583 1582 1592 1592 1582 1575 1577 1581 1585 1586 1587 1588 1589 1592
1578 1580 1582 1582 1582 1582 1582 1583 1584 1586 1586 1584 1583 1583 1583 1583 1583 1581 1580 1580 1578 1577 1579 1578 1582 1589 1591 1591 1590 1588 1585 1580 1584 1592 1592 1578 1569 1567 1570 1576 1578 1579 1581 1583 1587
1580 1581 1582 1582 1582 1583 1583 1585 1584 1584 1585 1587 1585 1584 1584 1584 1583 1582 1581 1579 1579 1579 1579 1577 1589 1591 1591 1590 1589 1585 1585 1585 1588 1588 1590 1586 1561 1565 1572 1573 1574 1575 1576 1579 1582
1581 1582 1582 1583 1585 1583 1585 1585 1584 1584 1582 1586 1585 1585 1585 1583 1584 1582 1580 1582 1581 1581 1583 1585 1590 1590 1589 1589 1591 1586 1590 1591 1590 1588 1576 1586 1564 1555 1566 1567 1570 1570 1572 1575 1576
1582 1583 1583 1584 1584 1586 1587 1585 1584 1585 1590 1587 1585 1585 1584 1585 1586 1583 1581 1580 1581 1582 1584 1587 1589 1588 1587 1590 1593 1588 1592 1591 1591 1586 1586 1581 1577 1544 1565 1559 1562 1565 1567 1569 1570
1582 1583 1584 1585 1585 1586 1586 1585 1585 1587 1589 1585 1585 1585 1584 1585 1585 1584 1582 1582 1584 1584 1585 1588 1591 1590 1589 1592 1592 1593 1589 1589 1590 1584 1573 1583 1581 1549 1552 1556 1561 1565 1565 1565 1567
1583 1584 1585 1585 1586 1586 1586 1586 1585 1587 1588 1586 1585 1585 1585 1585 1585 1585 1585 1583 1581 1581 1580 1586 1588 1591 1592 1588 1590 1589 1580 1570 1569 1567 1569 1588 1583 1552 1554 1560 1562 1562 1562 1563 1565
1583 1584 1585 1585 1585 1586 1586 1586 1592 1587 1584 1586 1586 1586 1584 1586 1587 1587 1586 1583 1589 1586 1583 1581 1582 1589 1592 1590 1588 1588 1587 1581 1590 1576 1571 1590 1571 1544 1557 1560 1560 1560 1559 1560 1561
1583 1585 1585 1585 1585 1585 1587 1588 1582 1584 1584 1585 1586 1584 1583 1586 1586 1585 1585 1584 1587 1588 1582 1581 1584 1593 1593 1593 1594 1588 1585 1596 1591 1598 1591 1563 1556 1546 1554 1555 1556 1555 1555 1556 1557
1583 1584 1584 1584 1584 1585 1586 1587 1584 1585 1585 1585 1583 1583 1581 1582 1584 1583 1582 1586 1587 1590 1590 1585 1582 1592 1594 1595 1595 1590 1595 1588 1588 1586 1579 1555 1563 1548 1541 1541 1548 1550 1550 1551 1553
1582 1583 1582 1582 1584 1585 1584 1583 1583 1583 1584 1584 1582 1582 1581 1581 1580 1580 1579 1587 1588 1590 1591 1589 1586 1592 1595 1589 1583 1593 1590 1596 1595 1592 1583 1575 1544 1532 1535 1538 1540 1542 1544 1545 1546
1580 1582 1579 1580 1585 1584 1581 1582 1582 1582 1582 1583 1582 1580 1580 1581 1580 1581 1577 1581 1586 1588 1588 1589 1585 1577 1578 1590 1590 1588 1584 1582 1583 1586 1590 1592 1557 1535 1537 1540 1541 1539 1540 1540 1541
1578 1578 1577 1579 1579 1579 1581 1580 1580 1580 1580 1581 1579 1579 1581 1581 1582 1580 1581 1586 1586 1588 1588 1589 1583 1573 1579 1590 1591 1586 1585 1585 1588 1587 1576 1576 1536 1534 1538 1538 1536 1535 1535 1535 1536
1576 1576 1576 1576 1575 1576 1577 1576 1577 1577 1578 1577 1577 1579 1579 1580 1582 1580 1582 1586 1586 1588 1589 1589 1583 1573 1561 1561 1566 1578 1581 1583 1578 1578 1562 1558 1532 1522 1524 1528 1529 1529 1529 1529 1530
1572 1570 1570 1571 1573 1573 1574 1573 1573 1574 1576 1576 1575 1572 1572 1575 1578 1577 1581 1586 1587 1587 1589 1589 1580 1579 1570 1571 1574 1568 1569 1577 1574 1562 1563 1528 1541 1523 1522 1522 1523 1523 1523 1524 1525
1570 1569 1569 1569 1569 1571 1572 1567 1567 1568 1570 1571 1571 1566 1570 1568 1564 1567 1574 1578 1575 1587 1587 1588 1577 1583 1570 1571 1573 1570 1563 1564 1566 1563 1558 1550 1540 1523 1519 1519 1519 1519 1518 1518 1518
1568 1566 1567 1565 1566 1567 1563 1560 1561 1563 1562 1562 1564 1566 1568 1565 1566 1567 1569 1570 1571 1575 1580 1583 1580 1578 1561 1570 1568 1555 1536 1549 1550 1550 1545 1542 1518 1517 1516 1515 1514 1512 1512 1511 1512
Wind_Speed
15 13 14 15 15 16 15 15 12 13 12 11 13 16 15 17 12 9 12 11 8 6 8 8 7 6 8 13 10 6 3 5 6 9 8 12 6 4 3 7 6 5 3 5 20
14 13 14 16 16 15 14 13 11 11 10 7 6 7 6 9 15 17 11 7 6 6 2 4 6 8 8 7 7 5 3 3 3 4 9 16 9 12 8 9 6 6 7 17 18
12 13 15 15 16 14 13 11 10 8 5 4 3 3 3 4 5 13 9 6 5 5 5 5 4 4 8 7 9 6 4 7 2 1 13 14 8 8 7 8 11 14 19 20 17
11 13 14 15 15 14 12 10 6 5 3 2 2 2 4 4 2 8 9 6 4 4 7 5 2 4 5 5 5 7 7 3 7 8 9 10 11 6 13 3 6 14 19 19 17
12 14 15 14 14 13 11 8 5 5 4 1 2 4 4 10 8 8 9 7 6 5 4 3 6 6 5 7 7 10 7 7 9 6 7 10 6 4 14 8 9 18 19 17 15
14 13 14 15 13 11 9 6 8 8 6 6 4 4 4 9 10 14 8 6 7 8 11 8 8 14 14 7 6 8 12 11 6 7 6 4 5 4 12 11 17 19 18 16 16
15 15 15 14 11 9 7 8 8 6 5 10 12 10 12 7 7 6 11 14 14 10 10 11 7 3 7 9 10 10 6 4 6 5 3 3 7 11 9 17 19 19 17 17 16
16 15 12 11 9 9 8 7 5 4 1 3 1 2 6 9 7 6 9 13 13 14 15 16 15 16 7 16 5 3 3 3 7 7 3 3 6 8 14 19 19 19 18 18 18
15 13 9 10 9 9 8 6 5 2 0 1 3 5 5 6 4 5 5 6 8 10 11 10 11 10 6 5 4 3 3 4 3 10 3 8 8 5 14 18 18 20 20 19 18
13 9 10 9 9 6 6 6 8 1 1 2 4 5 4 2 3 2 2 3 2 2 3 4 5 4 3 3 3 1 4 3 6 5 8 10 19 9 13 18 20 20 20 21 20
12 12 9 8 6 4 4 2 4 0 5 5 3 6 6 6 6 3 1 0 2 6 3 4 1 5 5 4 2 2 4 6 2 2 5 11 18 14 14 20 20 20 22 23 21
13 11 7 6 4 2 2 2 1 5 6 6 6 6 4 2 1 6 1 1 2 3 2 2 5 2 2 2 2 3 6 5 1 2 4 11 22 14 13 19 22 22 23 23 21
11 9 6 3 2 2 3 2 5 3 1 2 2 3 1 2 3 6 4 2 4 4 5 3 3 2 1 1 3 4 5 4 5 6 4 11 6 2 2 8 13 20 21 20 22
9 7 5 2 2 5 6 3 0 1 3 2 1 2 3 2 2 6 3 2 2 3 3 4 2 2 1 1 2 6 2 3 8 6 4 4 6 1 1 5 10 14 18 19 20
7 6 6 4 2 5 3 4 2 1 4 2 1 0 3 1 1 4 7 3 2 3 3 3 1 1 1 2 1 3 3 4 3 4 4 2 4 2 1 2 1 7 13 16 18
6 6 5 0 2 4 1 6 2 3 3 2 1 1 2 4 2 3 1 5 4 2 3 3 1 1 2 1 2 1 5 3 3 2 3 3 4 4 1 1 2 2 4 13 15
6 4 4 2 2 3 3 5 3 4 1 1 0 1 1 2 1 5 3 3 1 3 2 3 2 2 1 2 4 4 6 3 2 2 3 2 5 8 4 5 5 5 5 9 14
7 5 3 2 1 2 2 2 3 2 3 1 0 1 2 0 1 1 1 2 2 1 1 2 3 1 2 3 3 3 4 3 4 5 8 2 5 2 1 3 6 7 8 10 14
6 6 5 2 2 1 1 3 2 2 1 3 2 3 3 2 2 2 1 2 1 2 2 3 2 2 3 1 3 3 0 2 2 0 4 2 5 11 4 8 10 10 9 12 16
6 5 8 7 4 2 2 3 2 2 3 2 5 3 3 4 4 3 4 3 3 2 2 2 2 1 3 1 5 3 4 1 1 4 5 4 6 8 3 5 6 11 14 13 16
6 3 5 9 6 3 4 4 3 5 5 4 3 3 4 3 4 3 2 3 3 4 1 3 2 4 2 6 5 3 3 2 1 2 3 5 6 6 8 5 6 9 12 15 19
6 3 3 6 5 1 3 3 2 4 6 4 2 4 5 4 4 4 4 2 6 6 3 3 2 4 1 2 2 2 2 5 3 4 3 3 9 4 7 6 8 11 10 13 17
4 5 5 8 4 4 2 3 4 5 5 5 5 4 2 4 4 4 3 2 6 5 3 4 3 2 3 2 2 5 5 4 2 0 11 4 6 3 5 11 13 14 10 11 16
5 2 4 8 6 3 4 4 3 6 3 4 2 3 3 4 3 2 4 3 5 3 2 4 3 6 5 2 3 5 7 11 9 5 4 13 21 22 13 11 14 13 11 12 17
7 4 5 3 5 5 4 3 4 4 6 7 3 9 7 6 4 5 3 3 3 4 3 2 5 4 10 9 5 9 10 14 15 17 10 15 9 22 20 18 17 10 9 13 18
4 4 5 3 3 6 6 6 8 4 8 5 7 6 9 6 8 7 9 6 4 6 5 3 2 1 5 0 4 8 14 17 19 17 20 24 26 25 22 8 9 10 11 16 20
10 8 4 6 5 4 5 6 6 8 9 5 9 5 9 10 4 2 6 4 7 8 10 6 3 2 4 0 7 10 10 18 9 9 10 10 11 2 7 12 15 13 14 18 20
Wind_Direction
118 120 124 123 126 121 121 125 126 116 109 114 118 113 98 84 86 79 52 39 55 75 103 76 359 7 32 57 66 91 109 142 151 170 142 159 156 149 153 148 161 189 187 179 173
117 123 125 126 126 121 125 123 123 118 113 122 149 141 105 91 74 65 45 52 58 62 41 339 11 16 51 34 26 38 100 106 79 128 159 170 180 164 169 166 189 179 183 157 172
123 127 125 130 121 125 128 120 118 106 96 126 169 179 133 123 73 27 49 53 63 50 13 338 337 43 64 39 20 25 77 128 93 104 150 159 173 177 179 201 207 194 170 168 173
132 129 130 124 125 127 124 119 101 85 80 126 194 163 51 131 81 19 42 46 45 21 354 356 356 62 67 60 29 102 73 110 132 134 143 163 156 197 204 213 207 183 172 172 180
135 133 129 125 126 129 129 110 79 76 68 66 183 166 108 76 34 27 28 21 8 356 331 42 75 103 91 93 82 82 110 94 122 130 132 145 187 231 210 222 180 168 173 179 184
133 132 129 124 127 131 128 104 94 83 80 91 98 138 122 83 59 40 27 19 42 43 74 87 103 108 89 61 41 106 113 121 140 137 150 195 200 214 212 194 174 176 181 186 193
130 129 128 124 132 135 127 109 101 86 87 93 94 102 92 91 64 52 54 67 64 67 85 80 96 99 108 100 111 124 109 140 167 170 170 211 221 232 195 175 178 185 190 196 201
133 136 125 122 137 137 121 99 87 101 66 81 125 126 88 97 76 61 86 68 66 65 68 83 93 91 76 119 112 165 206 228 151 181 179 211 276 180 176 177 188 195 202 205 208
140 138 124 133 145 131 118 88 68 94 40 326 144 109 113 117 111 107 89 62 56 56 69 76 83 91 117 164 155 196 290 248 201 203 168 223 290 152 181 193 203 208 208 212 212
141 135 136 146 146 130 121 91 63 349 231 62 107 114 122 133 116 144 88 55 45 69 64 56 81 116 118 239 349 312 268 239 275 155 221 239 258 230 200 204 216 216 216 218 217
140 141 139 142 141 140 139 45 338 74 83 82 73 91 122 119 65 36 177 116 55 61 45 26 97 63 69 27 14 287 277 284 309 123 258 258 272 274 226 219 222 222 222 223 221
147 145 136 141 143 126 171 322 72 137 77 65 81 87 95 185 278 19 86 278 45 69 328 189 74 83 94 38 287 268 290 299 220 121 251 301 291 294 247 225 226 225 227 226 220
154 152 140 136 163 321 202 184 121 120 97 34 52 54 39 62 57 357 38 62 60 79 40 39 85 147 225 351 303 265 277 324 305 320 245 302 267 197 170 229 234 231 235 232 224
160 158 151 108 49 132 137 149 169 130 238 144 246 347 348 132 81 26 29 65 72 97 79 69 100 166 167 278 305 297 9 300 303 308 322 341 312 177 176 257 226 232 229 228 224
163 168 167 66 172 155 133 1 328 85 265 98 59 333 30 58 84 4 30 39 83 116 237 89 160 153 254 27 246 343 319 305 281 262 285 108 271 106 241 185 186 234 230 225 221
172 179 182 298 166 192 274 355 350 234 248 147 311 290 185 40 27 333 62 74 108 109 64 85 87 2 19 153 212 297 261 236 206 247 242 69 342 278 297 34 242 237 257 224 213
178 179 189 225 215 217 289 332 260 248 69 150 282 17 62 36 58 16 20 54 297 234 183 151 133 110 313 262 182 248 281 317 259 287 343 119 275 278 256 261 283 290 266 214 202
190 189 171 199 234 230 291 257 253 55 231 66 105 113 253 309 76 20 167 189 106 262 161 237 182 216 19 11 345 33 348 357 311 328 313 112 241 347 188 240 261 266 259 211 198
207 222 223 218 242 275 219 246 277 208 130 182 163 223 203 194 272 229 321 199 125 242 267 195 194 116 42 17 311 118 105 18 288 282 271 262 264 264 249 258 241 239 230 210 203
219 243 245 238 243 230 213 267 244 206 170 184 230 225 238 191 214 217 198 142 183 234 301 149 225 191 115 150 57 330 114 225 153 303 297 271 281 258 287 294 228 233 233 217 206
212 228 248 227 222 199 230 234 240 219 195 199 233 213 235 225 229 213 194 159 193 157 216 192 255 131 184 202 177 150 174 94 313 262 286 302 285 212 238 253 251 254 243 221 210
197 220 230 205 184 234 211 204 225 202 203 223 237 234 217 199 218 238 225 225 160 166 191 170 272 234 147 88 7 318 218 204 222 176 233 293 272 182 242 254 255 264 257 231 213
205 220 216 184 221 214 230 244 234 184 214 197 220 221 172 217 239 225 213 119 165 175 183 174 213 242 183 168 178 227 190 192 108 105 230 254 265 155 234 253 259 260 257 227 207
192 225 201 198 207 200 185 227 227 213 238 209 174 155 164 206 196 255 217 187 182 183 222 176 259 254 269 351 103 193 193 199 205 214 221 235 280 291 296 286 291 274 256 222 207
206 215 189 191 215 197 191 175 189 221 214 206 220 222 187 198 199 222 179 167 200 188 151 232 253 232 267 268 247 255 223 196 208 226 232 271 267 282 296 304 301 282 236 213 206
225 187 190 183 190 179 195 216 208 185 177 221 229 207 196 210 206 195 174 204 195 170 184 183 261 264 273 203 234 262 239 228 226 243 255 265 277 280 283 283 261 265 230 222 214
233 220 204 177 175 192 208 210 212 178 212 202 217 174 213 229 216 208 173 138 164 170 185 179 220 234 266 8 299 269 239 198 194 219 218 218 246 299 276 273 280 269 245 233 222